Location: Lane
(33.5226°N, 79.8788°W)
Time: 10:35:45
(UTC+00:00)

Altair - Pass Details

Date: 12 October 2022
Orbit: 1501 x 1682 km, 47.2° (Epoch: 30 November)

Event Time Altitude Azimuth Distance (km) Brightness Sun altitude
Rises 12:54:08 0° 304° (NW) 4,839 9.5 17.7°
Reaches altitude 10° 12:57:20 10° 309° (NW) 3,874 9.1 18.3°
Maximum altitude 13:07:09 58° 28° (NNE) 1,892 8.3 20.2°
Drops below altitude 10° 13:17:07 10° 106° (ESE) 3,940 11.6 22.0°
Sets 13:20:23 0° 110° (ESE) 4,925 11.6 22.6°
